Year,Month,Day,Hour,Minute,Value (Times are PST for temperature in C)
2019,04,25,00,01,7.40
2019,04,25,00,02,7.40
2019,04,25,00,03,7.40
2019,04,25,00,04,7.30
2019,04,25,00,05,7.30
2019,04,25,00,06,7.30
2019,04,25,00,07,7.30
2019,04,25,00,08,7.30
2019,04,25,00,09,7.20
2019,04,25,00,10,7.20
2019,04,25,00,12,7.10
2019,04,25,00,13,7.10
2019,04,25,00,15,7.00
2019,04,25,00,16,6.90
2019,04,25,00,17,6.90
2019,04,25,00,18,6.90
2019,04,25,00,19,6.90
2019,04,25,00,20,6.80
2019,04,25,00,21,6.80
2019,04,25,00,23,6.80
2019,04,25,00,24,6.70
2019,04,25,00,25,6.70
2019,04,25,00,26,6.70
2019,04,25,00,27,6.70
2019,04,25,00,28,6.70
2019,04,25,00,29,6.70
2019,04,25,00,30,6.60
2019,04,25,00,31,6.60
2019,04,25,00,32,6.60
2019,04,25,00,33,6.60
2019,04,25,00,34,6.60
2019,04,25,00,36,6.60
2019,04,25,00,37,6.50
2019,04,25,00,38,6.50
2019,04,25,00,39,6.60
2019,04,25,00,40,6.50
2019,04,25,00,42,6.50
2019,04,25,00,43,6.40
2019,04,25,00,44,6.40
2019,04,25,00,45,6.40
2019,04,25,00,46,6.40
2019,04,25,00,47,6.40
2019,04,25,00,49,6.40
2019,04,25,00,50,6.30
2019,04,25,00,52,6.30
2019,04,25,00,53,6.30
2019,04,25,00,55,6.30
2019,04,25,00,56,6.30
2019,04,25,00,57,6.20
2019,04,25,00,58,6.20
2019,04,25,00,59,6.20
2019,04,25,01,00,6.20
2019,04,25,01,01,6.20
2019,04,25,01,03,6.20
2019,04,25,01,04,6.10
2019,04,25,01,05,6.10
2019,04,25,01,06,6.10
2019,04,25,01,07,6.10
2019,04,25,01,08,6.10
2019,04,25,01,09,6.00
2019,04,25,01,10,6.00
2019,04,25,01,11,5.90
2019,04,25,01,12,5.90
2019,04,25,01,14,5.80
2019,04,25,01,15,5.80
2019,04,25,01,16,5.80
2019,04,25,01,17,5.70
2019,04,25,01,18,5.70
2019,04,25,01,19,5.70
2019,04,25,01,20,5.70
2019,04,25,01,22,5.60
2019,04,25,01,24,5.60
2019,04,25,01,25,5.60
2019,04,25,01,26,5.60
2019,04,25,01,28,5.50
2019,04,25,01,29,5.50
2019,04,25,01,30,5.40
2019,04,25,01,31,5.50
2019,04,25,01,33,5.40
2019,04,25,01,34,5.40
2019,04,25,01,36,5.40
2019,04,25,01,38,5.40
2019,04,25,01,40,5.30
2019,04,25,01,41,5.30
2019,04,25,01,42,5.30
2019,04,25,01,43,5.30
2019,04,25,01,44,5.30
2019,04,25,01,45,5.30
2019,04,25,01,46,5.30
2019,04,25,01,48,5.20
2019,04,25,01,49,5.20
2019,04,25,01,50,5.20
2019,04,25,01,51,5.20
2019,04,25,01,52,5.20
2019,04,25,01,53,5.20
2019,04,25,01,55,5.20
2019,04,25,01,57,5.20
2019,04,25,01,58,5.20
2019,04,25,02,00,5.20
2019,04,25,02,02,5.10
2019,04,25,02,03,5.10
2019,04,25,02,04,5.10
2019,04,25,02,06,5.10
2019,04,25,02,08,5.00
2019,04,25,02,09,5.00
2019,04,25,02,10,5.00
2019,04,25,02,11,4.90
2019,04,25,02,12,4.90
2019,04,25,02,13,4.90
2019,04,25,02,15,4.80
2019,04,25,02,16,4.80
2019,04,25,02,18,4.80
2019,04,25,02,20,4.80
2019,04,25,02,21,4.70
2019,04,25,02,22,4.70
2019,04,25,02,24,4.70
2019,04,25,02,25,4.70
2019,04,25,02,26,4.70
2019,04,25,02,27,4.70
2019,04,25,02,28,4.70
2019,04,25,02,30,4.60
2019,04,25,02,31,4.60
2019,04,25,02,32,4.60
2019,04,25,02,33,4.60
2019,04,25,02,34,4.60
2019,04,25,02,35,4.60
2019,04,25,02,37,4.60
2019,04,25,02,38,4.60
2019,04,25,02,40,4.60
2019,04,25,02,42,4.60
2019,04,25,02,44,4.50
2019,04,25,02,45,4.50
2019,04,25,02,46,4.50
2019,04,25,02,47,4.50
2019,04,25,02,49,4.40
2019,04,25,02,50,4.40
2019,04,25,02,51,4.40
2019,04,25,02,52,4.40
2019,04,25,02,54,4.40
2019,04,25,02,55,4.30
2019,04,25,02,57,4.30
2019,04,25,02,58,4.30
2019,04,25,03,00,4.30
2019,04,25,03,02,4.30
2019,04,25,03,03,4.30
2019,04,25,03,05,4.20
2019,04,25,03,06,4.20
2019,04,25,03,08,4.20
2019,04,25,03,09,4.20
2019,04,25,03,10,4.20
2019,04,25,03,11,4.20
2019,04,25,03,13,4.20
2019,04,25,03,14,4.20
2019,04,25,03,15,4.10
2019,04,25,03,17,4.10
2019,04,25,03,19,4.10
2019,04,25,03,20,4.10
2019,04,25,03,22,4.00
2019,04,25,03,24,4.00
2019,04,25,03,25,4.00
2019,04,25,03,27,4.00
2019,04,25,03,29,3.90
2019,04,25,03,30,3.90
2019,04,25,03,32,3.90
2019,04,25,03,33,3.90
2019,04,25,03,34,3.90
2019,04,25,03,35,3.90
2019,04,25,03,36,3.90
2019,04,25,03,37,3.80
2019,04,25,03,39,3.80
2019,04,25,03,40,3.80
2019,04,25,03,41,3.80
2019,04,25,03,43,3.80
2019,04,25,03,45,3.80
2019,04,25,03,46,3.80
2019,04,25,03,48,3.70
2019,04,25,03,49,3.70
2019,04,25,03,50,3.70
2019,04,25,03,52,3.70
2019,04,25,03,53,3.70
2019,04,25,03,54,3.70
2019,04,25,03,56,3.60
2019,04,25,03,58,3.60
2019,04,25,03,59,3.60
2019,04,25,04,01,3.60
2019,04,25,04,02,3.50
2019,04,25,04,03,3.50
2019,04,25,04,05,3.50
2019,04,25,04,07,3.50
2019,04,25,04,08,3.40
2019,04,25,04,10,3.40
2019,04,25,04,11,3.40
2019,04,25,04,13,3.40
2019,04,25,04,15,3.40
2019,04,25,04,16,3.30
2019,04,25,04,18,3.30
2019,04,25,04,19,3.30
2019,04,25,04,20,3.30
2019,04,25,04,21,3.30
2019,04,25,04,23,3.30
2019,04,25,04,25,3.30
2019,04,25,04,26,3.20
2019,04,25,04,28,3.20
2019,04,25,04,29,3.20
2019,04,25,04,31,3.20
2019,04,25,04,32,3.10
2019,04,25,04,34,3.10
2019,04,25,04,35,3.10
2019,04,25,04,37,3.10
2019,04,25,04,39,3.10
2019,04,25,04,41,3.00
2019,04,25,04,42,3.00
2019,04,25,04,43,3.00
2019,04,25,04,45,3.00
2019,04,25,04,46,3.00
2019,04,25,04,48,3.00
2019,04,25,04,50,3.00
2019,04,25,04,51,2.90
2019,04,25,04,53,2.90
2019,04,25,04,55,2.90
2019,04,25,04,57,2.90
2019,04,25,04,59,2.90
2019,04,25,05,01,2.90
2019,04,25,05,02,2.90
2019,04,25,05,04,2.90
2019,04,25,05,05,2.90
2019,04,25,05,07,2.90
2019,04,25,05,08,2.90
2019,04,25,05,10,2.80
2019,04,25,05,11,2.80
2019,04,25,05,13,2.80
2019,04,25,05,15,2.80
2019,04,25,05,17,2.80
2019,04,25,05,18,2.80
2019,04,25,05,20,2.80
2019,04,25,05,21,2.70
2019,04,25,05,22,2.70
2019,04,25,05,23,2.70
2019,04,25,05,25,2.70
2019,04,25,05,26,2.70
2019,04,25,05,28,2.70
2019,04,25,05,29,2.70
2019,04,25,05,30,2.70
2019,04,25,05,32,2.70
2019,04,25,05,33,2.60
2019,04,25,05,35,2.60
2019,04,25,05,36,2.60
2019,04,25,05,37,2.60
2019,04,25,05,38,2.60
2019,04,25,05,39,2.60
2019,04,25,05,40,2.60
2019,04,25,05,41,2.60
2019,04,25,05,43,2.60
2019,04,25,05,45,2.60
2019,04,25,05,47,2.60
2019,04,25,05,48,2.60
2019,04,25,05,49,2.50
2019,04,25,05,51,2.50
2019,04,25,05,52,2.50
2019,04,25,05,54,2.50
2019,04,25,05,55,2.40
2019,04,25,05,56,2.40
2019,04,25,05,58,2.40
2019,04,25,05,59,2.40
2019,04,25,06,00,2.40
2019,04,25,06,01,2.40
2019,04,25,06,02,2.40
2019,04,25,06,04,2.30
2019,04,25,06,05,2.30
2019,04,25,06,07,2.30
2019,04,25,06,09,2.30
2019,04,25,06,10,2.30
2019,04,25,06,11,2.20
2019,04,25,06,12,2.20
2019,04,25,06,13,2.20
2019,04,25,06,14,2.20
2019,04,25,06,15,2.20
2019,04,25,06,16,2.20
2019,04,25,06,17,2.10
2019,04,25,06,18,2.10
2019,04,25,06,20,2.10
2019,04,25,06,21,2.10
2019,04,25,06,22,2.10
2019,04,25,06,24,2.10
2019,04,25,06,25,2.10
2019,04,25,06,26,2.10
2019,04,25,06,28,2.10
2019,04,25,06,29,2.10
2019,04,25,06,30,2.10
2019,04,25,06,31,2.10
2019,04,25,06,32,2.10
2019,04,25,06,34,2.10
2019,04,25,06,36,2.10
2019,04,25,06,37,2.10
2019,04,25,06,38,2.10
2019,04,25,06,39,2.10
2019,04,25,06,41,2.10
2019,04,25,06,42,2.10
2019,04,25,06,43,2.10
2019,04,25,06,44,2.10
2019,04,25,06,46,2.10
2019,04,25,06,47,2.20
2019,04,25,06,49,2.20
2019,04,25,06,50,2.20
2019,04,25,06,52,2.20
2019,04,25,06,54,2.20
2019,04,25,06,56,2.20
2019,04,25,06,57,2.30
2019,04,25,06,58,2.30
2019,04,25,07,00,2.30
2019,04,25,07,01,2.30
2019,04,25,07,02,2.40
2019,04,25,07,04,2.40
2019,04,25,07,05,2.50
2019,04,25,07,06,2.50
2019,04,25,07,07,2.60
2019,04,25,07,08,2.60
2019,04,25,07,09,2.60
2019,04,25,07,10,2.60
2019,04,25,07,11,2.70
2019,04,25,07,12,2.70
2019,04,25,07,13,2.70
2019,04,25,07,14,2.80
2019,04,25,07,15,2.80
2019,04,25,07,16,2.80
2019,04,25,07,17,2.90
2019,04,25,07,18,2.90
2019,04,25,07,19,2.90
2019,04,25,07,20,3.00
2019,04,25,07,22,3.10
2019,04,25,07,23,3.10
2019,04,25,07,25,3.20
2019,04,25,07,27,3.20
2019,04,25,07,28,3.30
2019,04,25,07,29,3.30
2019,04,25,07,30,3.40
2019,04,25,07,31,3.40
2019,04,25,07,32,3.60
2019,04,25,07,33,3.60
2019,04,25,07,34,3.70
2019,04,25,07,35,3.70
2019,04,25,07,36,3.80
2019,04,25,07,37,3.80
2019,04,25,07,39,3.90
2019,04,25,07,41,4.00
2019,04,25,07,42,4.10
2019,04,25,07,43,4.20
2019,04,25,07,44,4.20
2019,04,25,07,45,4.30
2019,04,25,07,46,4.30
2019,04,25,07,47,4.30
2019,04,25,07,48,4.40
2019,04,25,07,49,4.40
2019,04,25,07,50,4.60
2019,04,25,07,51,4.60
2019,04,25,07,52,4.70
2019,04,25,07,54,4.70
2019,04,25,07,55,4.90
2019,04,25,07,56,4.90
2019,04,25,07,57,5.00
2019,04,25,07,58,5.10
2019,04,25,07,59,5.10
2019,04,25,08,00,5.10
2019,04,25,08,01,5.20
2019,04,25,08,02,5.20
2019,04,25,08,03,5.30
2019,04,25,08,04,5.30
2019,04,25,08,06,5.30
2019,04,25,08,08,5.40
2019,04,25,08,10,5.40
2019,04,25,08,11,5.50
2019,04,25,08,12,5.50
2019,04,25,08,13,5.60
2019,04,25,08,14,5.60
2019,04,25,08,15,5.60
2019,04,25,08,17,5.60
2019,04,25,08,19,5.70
2019,04,25,08,20,5.70
2019,04,25,08,21,5.70
2019,04,25,08,22,5.80
2019,04,25,08,24,5.80
2019,04,25,08,25,5.80
2019,04,25,08,27,5.80
2019,04,25,08,28,5.90
2019,04,25,08,29,5.90
2019,04,25,08,30,6.00
2019,04,25,08,31,6.10
2019,04,25,08,32,6.10
2019,04,25,08,33,6.20
2019,04,25,08,34,6.20
2019,04,25,08,35,6.20
2019,04,25,08,36,6.20
2019,04,25,08,37,6.30
2019,04,25,08,38,6.30
2019,04,25,08,39,6.30
2019,04,25,08,40,6.30
2019,04,25,08,41,6.30
2019,04,25,08,42,6.40
2019,04,25,08,43,6.40
2019,04,25,08,44,6.50
2019,04,25,08,45,6.60
2019,04,25,08,46,6.70
2019,04,25,08,47,6.70
2019,04,25,08,48,6.80
2019,04,25,08,49,6.80
2019,04,25,08,51,6.90
2019,04,25,08,52,6.90
2019,04,25,08,54,6.90
2019,04,25,08,55,6.90
2019,04,25,08,56,6.90
2019,04,25,08,57,6.90
2019,04,25,08,58,6.90
2019,04,25,08,59,6.90
2019,04,25,09,00,6.90
2019,04,25,09,01,6.90
2019,04,25,09,02,6.90
2019,04,25,09,03,6.90
2019,04,25,09,04,6.90
2019,04,25,09,05,6.90
2019,04,25,09,06,6.90
2019,04,25,09,07,6.90
2019,04,25,09,08,6.90
2019,04,25,09,09,6.90
2019,04,25,09,10,6.90
2019,04,25,09,11,6.90
2019,04,25,09,12,7.00
2019,04,25,09,13,7.00
2019,04,25,09,14,7.10
2019,04,25,09,15,7.10
2019,04,25,09,16,7.10
2019,04,25,09,17,7.10
2019,04,25,09,18,7.10
2019,04,25,09,19,7.10
2019,04,25,09,20,7.10
2019,04,25,09,21,7.20
2019,04,25,09,22,7.20
2019,04,25,09,23,7.20
2019,04,25,09,24,7.30
2019,04,25,09,25,7.30
2019,04,25,09,26,7.40
2019,04,25,09,27,7.40
2019,04,25,09,28,7.50
2019,04,25,09,29,7.60
2019,04,25,09,30,7.60
2019,04,25,09,31,7.70
2019,04,25,09,32,7.70
2019,04,25,09,33,7.80
2019,04,25,09,34,7.80
2019,04,25,09,35,7.90
2019,04,25,09,36,7.90
2019,04,25,09,37,8.00
2019,04,25,09,38,8.00
2019,04,25,09,39,8.10
2019,04,25,09,40,8.10
2019,04,25,09,41,8.20
2019,04,25,09,42,8.20
2019,04,25,09,43,8.20
2019,04,25,09,44,8.30
2019,04,25,09,45,8.30
2019,04,25,09,46,8.40
2019,04,25,09,47,8.50
2019,04,25,09,48,8.60
2019,04,25,09,49,8.70
2019,04,25,09,50,8.70
2019,04,25,09,51,8.80
2019,04,25,09,52,8.80
2019,04,25,09,53,8.80
2019,04,25,09,54,8.80
2019,04,25,09,55,8.80
2019,04,25,09,56,8.80
2019,04,25,09,57,8.80
2019,04,25,09,59,8.80
2019,04,25,10,00,8.90
2019,04,25,10,01,8.90
2019,04,25,10,02,8.90
2019,04,25,10,03,8.90
2019,04,25,10,04,8.90
2019,04,25,10,05,9.00
2019,04,25,10,06,9.10
2019,04,25,10,07,9.10
2019,04,25,10,08,9.20
2019,04,25,10,09,9.30
2019,04,25,10,10,9.30
2019,04,25,10,12,9.40
2019,04,25,10,13,9.40
2019,04,25,10,14,9.50
2019,04,25,10,15,9.60
2019,04,25,10,16,9.60
2019,04,25,10,17,9.70
2019,04,25,10,19,9.70
2019,04,25,10,20,9.70
2019,04,25,10,21,9.70
2019,04,25,10,22,9.80
2019,04,25,10,23,9.90
2019,04,25,10,24,9.90
2019,04,25,10,25,10.00
2019,04,25,10,26,10.10
2019,04,25,10,27,10.20
2019,04,25,10,28,10.20
2019,04,25,10,29,10.30
2019,04,25,10,30,10.30
2019,04,25,10,31,10.40
2019,04,25,10,32,10.40
2019,04,25,10,33,10.50
2019,04,25,10,34,10.60
2019,04,25,10,35,10.60
2019,04,25,10,36,10.60
2019,04,25,10,37,10.60
2019,04,25,10,38,10.60
2019,04,25,10,39,10.60
2019,04,25,10,40,10.60
2019,04,25,10,41,10.60
2019,04,25,10,42,10.70
2019,04,25,10,43,10.70
2019,04,25,10,44,10.80
2019,04,25,10,45,10.90
2019,04,25,10,46,10.90
2019,04,25,10,47,11.00
2019,04,25,10,48,11.10
2019,04,25,10,49,11.10
2019,04,25,10,50,11.20
2019,04,25,10,51,11.30
2019,04,25,10,52,11.30
2019,04,25,10,53,11.40
2019,04,25,10,54,11.50
2019,04,25,10,55,11.60
2019,04,25,10,56,11.70
2019,04,25,10,57,11.80
2019,04,25,10,58,11.80
2019,04,25,10,59,11.90
2019,04,25,11,00,11.90
2019,04,25,11,01,12.00
2019,04,25,11,02,12.00
2019,04,25,11,03,12.10
2019,04,25,11,04,12.10
2019,04,25,11,05,12.10
2019,04,25,11,06,12.10
2019,04,25,11,07,12.20
2019,04,25,11,08,12.20
2019,04,25,11,09,12.20
2019,04,25,11,10,12.30
2019,04,25,11,11,12.30
2019,04,25,11,12,12.40
2019,04,25,11,13,12.40
2019,04,25,11,14,12.40
2019,04,25,11,15,12.50
2019,04,25,11,16,12.60
2019,04,25,11,17,12.60
2019,04,25,11,18,12.60
2019,04,25,11,19,12.70
2019,04,25,11,20,12.70
2019,04,25,11,21,12.70
2019,04,25,11,22,12.70
2019,04,25,11,23,12.80
2019,04,25,11,24,12.80
2019,04,25,11,25,12.90
2019,04,25,11,26,12.90
2019,04,25,11,27,12.90
2019,04,25,11,28,13.00
2019,04,25,11,29,13.00
2019,04,25,11,30,13.10
2019,04,25,11,31,13.10
2019,04,25,11,32,13.10
2019,04,25,11,33,13.10
2019,04,25,11,34,13.10
2019,04,25,11,35,13.10
2019,04,25,11,36,13.10
2019,04,25,11,37,13.10
2019,04,25,11,38,13.20
2019,04,25,11,39,13.20
2019,04,25,11,40,13.20
2019,04,25,11,41,13.20
2019,04,25,11,42,13.20
2019,04,25,11,43,13.20
2019,04,25,11,44,13.30
2019,04,25,11,45,13.30
2019,04,25,11,46,13.40
2019,04,25,11,47,13.40
2019,04,25,11,48,13.40
2019,04,25,11,49,13.50
2019,04,25,11,50,13.50
2019,04,25,11,51,13.50
2019,04,25,11,52,13.50
2019,04,25,11,53,13.50
2019,04,25,11,54,13.50
2019,04,25,11,55,13.50
2019,04,25,11,56,13.50
2019,04,25,11,57,13.50
2019,04,25,11,58,13.60
2019,04,25,11,59,13.60
2019,04,25,12,00,13.60
2019,04,25,12,01,13.60
2019,04,25,12,02,13.60
2019,04,25,12,03,13.60
2019,04,25,12,04,13.60
2019,04,25,12,05,13.70
2019,04,25,12,06,13.70
2019,04,25,12,07,13.80
2019,04,25,12,08,13.80
2019,04,25,12,09,13.80
2019,04,25,12,10,13.80
2019,04,25,12,11,13.80
2019,04,25,12,12,13.80
2019,04,25,12,13,13.90
2019,04,25,12,14,14.00
2019,04,25,12,15,14.10
2019,04,25,12,16,14.20
2019,04,25,12,17,14.30
2019,04,25,12,18,14.40
2019,04,25,12,19,14.40
2019,04,25,12,20,14.40
2019,04,25,12,21,14.40
2019,04,25,12,22,14.40
2019,04,25,12,23,14.40
2019,04,25,12,24,14.40
2019,04,25,12,25,14.30
2019,04,25,12,26,14.30
2019,04,25,12,27,14.30
2019,04,25,12,28,14.40
2019,04,25,12,29,14.40
2019,04,25,12,30,14.50
2019,04,25,12,31,14.60
2019,04,25,12,32,14.60
2019,04,25,12,33,14.70
2019,04,25,12,34,14.70
2019,04,25,12,35,14.80
2019,04,25,12,36,14.80
2019,04,25,12,37,14.90
2019,04,25,12,38,14.90
2019,04,25,12,39,14.90
2019,04,25,12,40,14.90
2019,04,25,12,41,14.90
2019,04,25,12,42,14.90
2019,04,25,12,43,14.80
2019,04,25,12,44,14.80
2019,04,25,12,45,14.70
2019,04,25,12,46,14.80
2019,04,25,12,47,14.80
2019,04,25,12,48,14.80
2019,04,25,12,49,14.90
2019,04,25,12,50,14.90
2019,04,25,12,51,14.90
2019,04,25,12,52,15.00
2019,04,25,12,53,15.10
2019,04,25,12,54,15.10
2019,04,25,12,55,15.10
2019,04,25,12,56,15.10
2019,04,25,12,57,15.10
2019,04,25,12,58,15.10
2019,04,25,12,59,15.10
2019,04,25,13,00,15.10
2019,04,25,13,01,15.10
2019,04,25,13,02,15.10
2019,04,25,13,03,15.10
2019,04,25,13,04,15.10
2019,04,25,13,05,15.10
2019,04,25,13,06,15.10
2019,04,25,13,07,15.10
2019,04,25,13,08,15.20
2019,04,25,13,09,15.20
2019,04,25,13,10,15.20
2019,04,25,13,11,15.20
2019,04,25,13,12,15.20
2019,04,25,13,13,15.20
2019,04,25,13,14,15.20
2019,04,25,13,15,15.20
2019,04,25,13,16,15.20
2019,04,25,13,17,15.20
2019,04,25,13,18,15.20
2019,04,25,13,19,15.30
2019,04,25,13,20,15.30
2019,04,25,13,21,15.40
2019,04,25,13,22,15.50
2019,04,25,13,23,15.60
2019,04,25,13,24,15.60
2019,04,25,13,25,15.60
2019,04,25,13,26,15.70
2019,04,25,13,27,15.70
2019,04,25,13,28,15.70
2019,04,25,13,29,15.70
2019,04,25,13,30,15.70
2019,04,25,13,31,15.70
2019,04,25,13,32,15.70
2019,04,25,13,33,15.60
2019,04,25,13,34,15.60
2019,04,25,13,35,15.60
2019,04,25,13,36,15.60
2019,04,25,13,37,15.60
2019,04,25,13,38,15.60
2019,04,25,13,39,15.60
2019,04,25,13,40,15.60
2019,04,25,13,41,15.70
2019,04,25,13,42,15.70
2019,04,25,13,43,15.80
2019,04,25,13,44,15.90
2019,04,25,13,45,15.90
2019,04,25,13,46,16.10
2019,04,25,13,47,16.20
2019,04,25,13,48,16.30
2019,04,25,13,49,16.40
2019,04,25,13,50,16.40
2019,04,25,13,51,16.60
2019,04,25,13,52,16.60
2019,04,25,13,53,16.60
2019,04,25,13,54,16.70
2019,04,25,13,55,16.70
2019,04,25,13,56,16.60
2019,04,25,13,57,16.60
2019,04,25,13,58,16.50
2019,04,25,13,59,16.40
2019,04,25,14,00,16.40
2019,04,25,14,01,16.30
2019,04,25,14,02,16.30
2019,04,25,14,03,16.30
2019,04,25,14,04,16.30
2019,04,25,14,05,16.20
2019,04,25,14,06,16.20
2019,04,25,14,07,16.10
2019,04,25,14,08,16.10
2019,04,25,14,09,16.20
2019,04,25,14,10,16.20
2019,04,25,14,11,16.20
2019,04,25,14,12,16.20
2019,04,25,14,13,16.20
2019,04,25,14,14,16.10
2019,04,25,14,15,16.10
2019,04,25,14,16,16.10
2019,04,25,14,17,16.10
2019,04,25,14,18,16.10
2019,04,25,14,19,16.10
2019,04,25,14,20,16.10
2019,04,25,14,21,16.00
2019,04,25,14,22,16.00
2019,04,25,14,23,16.00
2019,04,25,14,24,16.10
2019,04,25,14,25,16.00
2019,04,25,14,26,16.00
2019,04,25,14,27,16.10
2019,04,25,14,28,16.00
2019,04,25,14,29,16.00
2019,04,25,14,31,16.00
2019,04,25,14,32,16.10
2019,04,25,14,33,16.10
2019,04,25,14,34,16.10
2019,04,25,14,35,16.10
2019,04,25,14,36,16.10
2019,04,25,14,37,16.10
2019,04,25,14,38,16.10
2019,04,25,14,39,16.10
2019,04,25,14,40,16.20
2019,04,25,14,41,16.20
2019,04,25,14,42,16.20
2019,04,25,14,43,16.30
2019,04,25,14,44,16.30
2019,04,25,14,45,16.40
2019,04,25,14,46,16.50
2019,04,25,14,47,16.60
2019,04,25,14,48,16.60
2019,04,25,14,49,16.70
2019,04,25,14,50,16.70
2019,04,25,14,51,16.70
2019,04,25,14,52,16.60
2019,04,25,14,53,16.60
2019,04,25,14,54,16.60
2019,04,25,14,55,16.60
2019,04,25,14,56,16.60
2019,04,25,14,57,16.70
2019,04,25,14,58,16.70
2019,04,25,14,59,16.70
2019,04,25,15,00,16.70
2019,04,25,15,01,16.70
2019,04,25,15,02,16.70
2019,04,25,15,03,16.70
2019,04,25,15,04,16.70
2019,04,25,15,05,16.70
2019,04,25,15,06,16.70
2019,04,25,15,07,16.70
2019,04,25,15,08,16.70
2019,04,25,15,09,16.70
2019,04,25,15,10,16.80
2019,04,25,15,11,16.80
2019,04,25,15,12,16.90
2019,04,25,15,13,16.90
2019,04,25,15,14,16.90
2019,04,25,15,15,16.80
2019,04,25,15,16,16.80
2019,04,25,15,17,16.80
2019,04,25,15,18,16.80
2019,04,25,15,19,16.80
2019,04,25,15,20,16.80
2019,04,25,15,21,16.80
2019,04,25,15,22,16.70
2019,04,25,15,23,16.70
2019,04,25,15,24,16.70
2019,04,25,15,25,16.80
2019,04,25,15,26,16.80
2019,04,25,15,27,16.80
2019,04,25,15,28,16.80
2019,04,25,15,29,16.90
2019,04,25,15,30,16.90
2019,04,25,15,31,16.90
2019,04,25,15,32,16.90
2019,04,25,15,33,16.90
2019,04,25,15,34,16.90
2019,04,25,15,35,16.90
2019,04,25,15,36,17.00
2019,04,25,15,37,17.00
2019,04,25,15,38,17.10
2019,04,25,15,39,17.10
2019,04,25,15,40,17.10
2019,04,25,15,41,16.90
2019,04,25,15,42,16.90
2019,04,25,15,43,16.80
2019,04,25,15,44,16.80
2019,04,25,15,45,16.80
2019,04,25,15,46,16.80
2019,04,25,15,47,16.80
2019,04,25,15,48,16.80
2019,04,25,15,49,16.80
2019,04,25,15,50,16.80
2019,04,25,15,51,16.90
2019,04,25,15,52,16.90
2019,04,25,15,53,17.00
2019,04,25,15,54,17.00
2019,04,25,15,55,17.00
2019,04,25,15,56,17.10
2019,04,25,15,57,17.10
2019,04,25,15,58,17.10
2019,04,25,15,59,17.10
2019,04,25,16,00,17.10
2019,04,25,16,01,17.10
2019,04,25,16,02,17.10
2019,04,25,16,03,17.10
2019,04,25,16,04,17.10
2019,04,25,16,05,17.00
2019,04,25,16,06,16.90
2019,04,25,16,07,16.90
2019,04,25,16,08,16.90
2019,04,25,16,09,16.90
2019,04,25,16,10,16.90
2019,04,25,16,11,16.90
2019,04,25,16,12,16.90
2019,04,25,16,13,16.90
2019,04,25,16,14,16.90
2019,04,25,16,15,17.00
2019,04,25,16,16,17.10
2019,04,25,16,17,17.10
2019,04,25,16,18,17.10
2019,04,25,16,19,17.10
2019,04,25,16,20,17.00
2019,04,25,16,21,17.00
2019,04,25,16,22,16.90
2019,04,25,16,23,16.90
2019,04,25,16,24,16.90
2019,04,25,16,25,16.90
2019,04,25,16,26,16.80
2019,04,25,16,27,16.80
2019,04,25,16,28,16.80
2019,04,25,16,29,16.80
2019,04,25,16,30,16.80
2019,04,25,16,31,16.70
2019,04,25,16,32,16.70
2019,04,25,16,33,16.70
2019,04,25,16,34,16.60
2019,04,25,16,35,16.60
2019,04,25,16,36,16.60
2019,04,25,16,37,16.60
2019,04,25,16,38,16.70
2019,04,25,16,39,16.70
2019,04,25,16,40,16.70
2019,04,25,16,41,16.70
2019,04,25,16,42,16.70
2019,04,25,16,43,16.80
2019,04,25,16,45,16.80
2019,04,25,16,46,16.80
2019,04,25,16,47,16.80
2019,04,25,16,48,16.80
2019,04,25,16,49,16.80
2019,04,25,16,50,16.80
2019,04,25,16,51,16.80
2019,04,25,16,52,16.70
2019,04,25,16,53,16.70
2019,04,25,16,54,16.70
2019,04,25,16,55,16.70
2019,04,25,16,57,16.70
2019,04,25,16,58,16.70
2019,04,25,16,59,16.70
2019,04,25,17,00,16.70
2019,04,25,17,01,16.70
2019,04,25,17,02,16.70
2019,04,25,17,03,16.70
2019,04,25,17,04,16.70
2019,04,25,17,05,16.70
2019,04,25,17,07,16.70
2019,04,25,17,08,16.70
2019,04,25,17,09,16.70
2019,04,25,17,10,16.70
2019,04,25,17,11,16.70
2019,04,25,17,12,16.60
2019,04,25,17,13,16.60
2019,04,25,17,14,16.60
2019,04,25,17,15,16.60
2019,04,25,17,16,16.60
2019,04,25,17,17,16.60
2019,04,25,17,18,16.60
2019,04,25,17,19,16.70
2019,04,25,17,20,16.70
2019,04,25,17,21,16.70
2019,04,25,17,22,16.70
2019,04,25,17,23,16.70
2019,04,25,17,24,16.70
2019,04,25,17,25,16.70
2019,04,25,17,26,16.70
2019,04,25,17,27,16.70
2019,04,25,17,28,16.70
2019,04,25,17,29,16.70
2019,04,25,17,30,16.60
2019,04,25,17,31,16.60
2019,04,25,17,32,16.60
2019,04,25,17,33,16.60
2019,04,25,17,34,16.60
2019,04,25,17,35,16.60
2019,04,25,17,36,16.60
2019,04,25,17,37,16.60
2019,04,25,17,38,16.50
2019,04,25,17,39,16.50
2019,04,25,17,40,16.40
2019,04,25,17,41,16.40
2019,04,25,17,42,16.30
2019,04,25,17,43,16.30
2019,04,25,17,45,16.30
2019,04,25,17,46,16.30
2019,04,25,17,47,16.30
2019,04,25,17,48,16.30
2019,04,25,17,49,16.40
2019,04,25,17,50,16.40
2019,04,25,17,51,16.40
2019,04,25,17,52,16.40
2019,04,25,17,53,16.40
2019,04,25,17,54,16.40
2019,04,25,17,55,16.30
2019,04,25,17,56,16.30
2019,04,25,17,57,16.30
2019,04,25,17,58,16.30
2019,04,25,17,59,16.30
2019,04,25,18,00,16.30
2019,04,25,18,01,16.20
2019,04,25,18,02,16.20
2019,04,25,18,03,16.20
2019,04,25,18,04,16.20
2019,04,25,18,05,16.20
2019,04,25,18,06,16.20
2019,04,25,18,07,16.20
2019,04,25,18,08,16.20
2019,04,25,18,09,16.10
2019,04,25,18,10,16.20
2019,04,25,18,11,16.10
2019,04,25,18,12,16.10
2019,04,25,18,13,16.10
2019,04,25,18,14,16.10
2019,04,25,18,15,16.10
2019,04,25,18,16,16.10
2019,04,25,18,17,16.10
2019,04,25,18,18,16.10
2019,04,25,18,19,16.10
2019,04,25,18,20,16.10
2019,04,25,18,21,16.10
2019,04,25,18,22,16.10
2019,04,25,18,23,16.10
2019,04,25,18,24,16.10
2019,04,25,18,25,16.10
2019,04,25,18,26,16.10
2019,04,25,18,27,16.10
2019,04,25,18,28,16.10
2019,04,25,18,29,16.10
2019,04,25,18,31,16.10
2019,04,25,18,32,16.10
2019,04,25,18,33,16.10
2019,04,25,18,34,16.10
2019,04,25,18,35,16.10
2019,04,25,18,37,16.10
2019,04,25,18,38,16.10
2019,04,25,18,39,16.10
2019,04,25,18,40,16.10
2019,04,25,18,41,16.10
2019,04,25,18,42,16.10
2019,04,25,18,43,16.10
2019,04,25,18,45,16.10
2019,04,25,18,47,16.10
2019,04,25,18,48,16.10
2019,04,25,18,50,16.00
2019,04,25,18,51,16.00
2019,04,25,18,53,16.00
2019,04,25,18,54,16.00
2019,04,25,18,55,16.00
2019,04,25,18,56,16.00
2019,04,25,18,57,15.90
2019,04,25,18,58,15.90
2019,04,25,18,59,15.90
2019,04,25,19,00,15.90
2019,04,25,19,01,15.90
2019,04,25,19,02,15.90
2019,04,25,19,04,15.90
2019,04,25,19,05,15.90
2019,04,25,19,06,15.90
2019,04,25,19,07,15.90
2019,04,25,19,09,15.90
2019,04,25,19,10,15.90
2019,04,25,19,11,15.90
2019,04,25,19,12,15.90
2019,04,25,19,13,15.80
2019,04,25,19,15,15.80
2019,04,25,19,17,15.80
2019,04,25,19,18,15.80
2019,04,25,19,20,15.80
2019,04,25,19,21,15.70
2019,04,25,19,22,15.70
2019,04,25,19,23,15.70
2019,04,25,19,25,15.70
2019,04,25,19,26,15.70
2019,04,25,19,27,15.70
2019,04,25,19,28,15.70
2019,04,25,19,29,15.60
2019,04,25,19,31,15.60
2019,04,25,19,33,15.60
2019,04,25,19,34,15.50
2019,04,25,19,36,15.50
2019,04,25,19,37,15.40
2019,04,25,19,38,15.40
2019,04,25,19,39,15.40
2019,04,25,19,40,15.40
2019,04,25,19,41,15.40
2019,04,25,19,42,15.40
2019,04,25,19,43,15.30
2019,04,25,19,45,15.30
2019,04,25,19,46,15.30
2019,04,25,19,47,15.30
2019,04,25,19,48,15.30
2019,04,25,19,49,15.30
2019,04,25,19,50,15.30
2019,04,25,19,51,15.30
2019,04,25,19,52,15.30
2019,04,25,19,53,15.20
2019,04,25,19,55,15.20
2019,04,25,19,56,15.20
2019,04,25,19,58,15.20
2019,04,25,19,59,15.20
2019,04,25,20,00,15.10
2019,04,25,20,01,15.10
2019,04,25,20,02,15.10
2019,04,25,20,04,15.10
2019,04,25,20,06,15.10
2019,04,25,20,07,15.00
2019,04,25,20,09,15.00
2019,04,25,20,11,14.90
2019,04,25,20,12,14.90
2019,04,25,20,14,14.90
2019,04,25,20,15,14.90
2019,04,25,20,16,14.80
2019,04,25,20,18,14.80
2019,04,25,20,20,14.80